BMCB-34 Weather Reports


time (UTC)temp
C
wind
direction
speed
KPH
gust
KPH
rain 1hr
cm
rain 24hr
cm
rain mn
cm
humidity
%
barometer
mb
20260502214032 15 0 0.0 0.0 0.00 0.00 0.00 61 1010.0
20260502213032 15 0 0.0 0.0 0.00 0.00 0.00 62 1010.0
20260502212035 15 0 0.0 0.0 0.00 0.00 0.00 61 1010.1
20260502211033 15 0 0.0 0.0 0.00 0.00 0.00 61 1010.1
20260502210038 15 0 0.0 0.0 0.00 0.00 0.00 61 1010.1
20260502205038 15 0 0.0 0.0 0.00 0.00 0.00 60 1010.1
20260502204036 15 0 0.0 0.0 0.00 0.00 0.00 60 1010.2
20260502203034 15 0 0.0 0.0 0.00 0.00 0.00 59 1010.2
20260502202042 16 0 0.0 0.0 0.00 0.00 0.00 59 1010.1
20260502201031 16 0 0.0 0.0 0.00 0.00 0.00 58 1010.1
20260502200035 16 0 0.0 0.0 0.00 0.00 0.00 58 1010.0
20260502195032 16 0 0.0 0.0 0.00 0.00 0.00 58 1009.9
20260502194035 16 0 0.0 0.0 0.00 0.00 0.00 58 1009.8
20260502193036 16 0 0.0 0.0 0.00 0.00 0.00 58 1009.8
20260502192032 17 0 0.0 0.0 0.00 0.00 0.00 57 1009.7
20260502191033 17 0 0.0 0.0 0.00 0.00 0.00 57 1009.6
20260502185033 18 0 0.0 0.0 0.00 0.00 0.00 56 1009.5
20260502183034 20 0 0.0 0.0 0.00 0.00 0.00 53 1009.4
20260502181037 21 0 0.0 0.0 0.00 0.00 0.00 48 1009.4
20260502164022 25 0 0.0 0.0 0.00 0.00 0.00 33 1009.6
20260502163020 25 0 0.0 0.0 0.00 0.00 0.00 32 1009.6
20260502152023 25 0 0.0 0.0 0.00 0.00 0.00 33 1010.4
20260502151024 25 0 0.0 0.0 0.00 0.00 0.00 35 1010.6
20260502123017 23 0 0.0 0.0 0.00 0.00 0.00 52 1012.6
20260502121022 23 0 0.0 0.0 0.00 0.00 0.00 53 1012.8
20260502115022 22 0 0.0 0.0 0.00 0.00 0.00 55 1013.3
20260502114024 22 0 0.0 0.0 0.00 0.00 0.00 55 1013.4
20260502113023 22 0 0.0 0.0 0.00 0.00 0.00 55 1013.5
20260502112020 22 0 0.0 0.0 0.00 0.00 0.00 55 1013.7
20260502111022 22 0 0.0 0.0 0.00 0.00 0.00 56 1013.9
20260502110023 21 0 0.0 0.0 0.00 0.00 0.00 56 1014.0
20260502105025 21 0 0.0 0.0 0.00 0.00 0.00 56 1014.0
20260502104021 21 0 0.0 0.0 0.00 0.00 0.00 56 1014.2
20260502103027 21 0 0.0 0.0 0.00 0.00 0.00 57 1014.4
20260502102023 20 0 0.0 0.0 0.00 0.00 0.00 57 1014.5
20260502101026 20 0 0.0 0.0 0.00 0.00 0.00 57 1014.6
20260502091024 18 0 0.0 0.0 0.00 0.00 0.00 58 1015.2
20260502070033 12 0 0.0 0.0 0.00 0.00 0.00 67 1016.5
20260502065030 11 0 0.0 0.0 0.00 0.00 0.00 68 1016.5
20260502064033 11 0 0.0 0.0 0.00 0.00 0.00 69 1016.4
20260502063023 11 0 0.0 0.0 0.00 0.00 0.00 69 1016.4
20260502062029 11 0 0.0 0.0 0.00 0.00 0.00 68 1016.4
20260502061024 11 0 0.0 0.0 0.00 0.00 0.00 68 1016.4
20260502060045 11 0 0.0 0.0 0.00 0.00 0.00 68 1016.4
20260502060028 12 0 0.0 0.0 0.00 0.00 0.00 67 1016.5
20260502055031 12 0 0.0 0.0 0.00 0.00 0.00 67 1016.5
20260502055022 11 0 0.0 0.0 0.00 0.00 0.00 70 1016.6
20260502054023 10 0 0.0 0.0 0.00 0.00 0.00 72 1016.8
20260502053024 10 0 0.0 0.0 0.00 0.00 0.00 74 1016.8
20260502052036 10 0 0.0 0.0 0.00 0.00 0.00 74 1016.8
20260502052031 10 0 0.0 0.0 0.00 0.00 0.00 75 1016.8
20260502050036 9 0 0.0 0.0 0.00 0.00 0.00 76 1016.7
20260502050029 8 0 0.0 0.0 0.00 0.00 0.00 77 1016.7
20260502045023 8 0 0.0 0.0 0.00 0.00 0.00 78 1016.6
20260502044026 8 0 0.0 0.0 0.00 0.00 0.00 78 1016.6
20260502044024 8 0 0.0 0.0 0.00 0.00 0.00 78 1016.6
20260502043037 8 0 0.0 0.0 0.00 0.00 0.00 78 1016.6
20260502043031 8 0 0.0 0.0 0.00 0.00 0.00 78 1016.5
20260502042033 8 0 0.0 0.0 0.00 0.00 0.00 78 1016.5
20260502042028 8 0 0.0 0.0 0.00 0.00 0.00 77 1016.5
20260502041035 8 0 0.0 0.0 0.00 0.00 0.00 77 1016.5
20260502041028 8 0 0.0 0.0 0.00 0.00 0.00 76 1016.4
20260502040034 8 0 0.0 0.0 0.00 0.00 0.00 76 1016.4
20260502040027 8 0 0.0 0.0 0.00 0.00 0.00 75 1016.4
20260502035029 8 0 0.0 0.0 0.00 0.00 0.00 74 1016.4
20260502034032 8 0 0.0 0.0 0.00 0.00 0.00 74 1016.4
20260502034028 8 0 0.0 0.0 0.00 0.00 0.00 74 1016.5
20260502033024 8 0 0.0 0.0 0.00 0.00 0.00 74 1016.5
20260502031024 8 0 0.0 0.0 0.00 0.00 0.00 74 1016.7
20260502030038 8 0 0.0 0.0 0.00 0.00 0.00 74 1016.7
20260502030032 8 0 0.0 0.0 0.00 0.00 0.00 76 1016.8
20260502025036 8 0 0.0 0.0 0.00 0.00 0.00 76 1016.8
20260502025029 8 0 0.0 0.0 0.00 0.00 0.00 76 1016.6
20260502024031 8 0 0.0 0.0 0.00 0.00 0.00 76 1016.6
20260502024025 8 0 0.0 0.0 0.00 0.00 0.00 76 1016.6
20260502023034 8 0 0.0 0.0 0.00 0.00 0.00 76 1016.6
20260502023028 8 0 0.0 0.0 0.00 0.00 0.00 74 1016.7
20260502022033 8 0 0.0 0.0 0.00 0.00 0.00 74 1016.7
20260502022027 8 0 0.0 0.0 0.00 0.00 0.00 74 1016.6
20260502021039 8 0 0.0 0.0 0.00 0.00 0.00 73 1016.6
20260502020031 9 0 0.0 0.0 0.00 0.00 0.00 72 1016.6
20260502015038 9 0 0.0 0.0 0.00 0.00 0.00 72 1016.6
20260502015032 8 0 0.0 0.0 0.00 0.00 0.00 73 1016.6
20260502014030 8 0 0.0 0.0 0.00 0.00 0.00 73 1016.6
20260502014024 9 0 0.0 0.0 0.00 0.00 0.00 72 1016.7
20260502013036 9 0 0.0 0.0 0.00 0.00 0.00 72 1016.7
20260502013031 9 0 0.0 0.0 0.00 0.00 0.00 72 1016.8
20260502012022 9 0 0.0 0.0 0.00 0.00 0.00 71 1016.8
20260502011032 9 0 0.0 0.0 0.00 0.00 0.00 71 1016.8
20260502011026 9 0 0.0 0.0 0.00 0.00 0.00 72 1016.8
20260502010029 10 0 0.0 0.0 0.00 0.00 0.00 71 1016.8
20260502005036 10 0 0.0 0.0 0.00 0.00 0.00 71 1016.8
20260502005030 10 0 0.0 0.0 0.00 0.00 0.00 71 1016.9
20260502004023 10 0 0.0 0.0 0.00 0.00 0.00 71 1016.9
20260502003026 10 0 0.0 0.0 0.00 0.00 0.00 71 1016.9
20260502002030 10 0 0.0 0.0 0.00 0.00 0.00 71 1016.9
20260502001037 10 0 0.0 0.0 0.00 0.00 0.00 71 1016.9
20260502001032 10 0 0.0 0.0 0.00 0.00 0.00 71 1017.0
20260502000027 10 0 0.0 0.0 0.00 0.00 0.00 72 1017.0
20260501235044 10 0 0.0 0.0 0.00 0.00 0.00 72 1017.0
20260501235035 10 0 0.0 0.0 0.00 0.00 0.00 71 1017.1
20260501234029 10 0 0.0 0.0 0.00 0.00 0.00 71 1017.1
20260501234023 10 0 0.0 0.0 0.00 0.00 0.00 69 1017.1
20260501233038 10 0 0.0 0.0 0.00 0.00 0.00 69 1017.1
20260501233031 10 0 0.0 0.0 0.00 0.00 0.00 67 1017.2
20260501232030 10 0 0.0 0.0 0.00 0.00 0.00 67 1017.2
20260501231038 10 0 0.0 0.0 0.00 0.00 0.00 67 1017.2
20260501231029 10 0 0.0 0.0 0.00 0.00 0.00 66 1017.2
20260501230036 10 0 0.0 0.0 0.00 0.00 0.00 66 1017.2
20260501230030 10 0 0.0 0.0 0.00 0.00 0.00 67 1017.2
20260501225034 10 0 0.0 0.0 0.00 0.00 0.00 67 1017.2
20260501225026 10 0 0.0 0.0 0.00 0.00 0.00 66 1017.3
20260501224025 10 0 0.0 0.0 0.00 0.00 0.00 66 1017.3
20260501223033 10 0 0.0 0.0 0.00 0.00 0.00 66 1017.4
20260501222039 10 0 0.0 0.0 0.00 0.00 0.00 66 1017.4
20260501222030 11 0 0.0 0.0 0.00 0.00 0.00 65 1017.4
20260501221038 11 0 0.0 0.0 0.00 0.00 0.00 65 1017.4
20260501221031 11 0 0.0 0.0 0.00 0.00 0.00 64 1017.4
20260501220036 11 0 0.0 0.0 0.00 0.00 0.00 64 1017.4
20260501215039 11 0 0.0 0.0 0.00 0.00 0.00 64 1017.4
20260501215033 11 0 0.0 0.0 0.00 0.00 0.00 62 1017.5